EW0415 Weather Reports


time (UTC)temp
F
wind
direction
speed
knots
gust
knots
rain 1hr
in
rain 24hr
in
rain mn
in
humidity
%
barometer
mb
20260507193513 57 0 0.0 0.0 0.00 0.00 0.00 77 1031.4
20260507193029 57 0 0.0 0.0 0.00 0.00 0.00 77 1031.4
20260507192509 57 0 0.0 0.0 0.00 0.00 0.00 77 1031.3
20260507192010 57 0 0.0 0.0 0.00 0.00 0.00 77 1031.3
20260507191528 57 0 0.0 0.0 0.00 0.00 0.00 77 1031.3
20260507191009 57 0 0.0 0.0 0.00 0.00 0.00 77 1031.1
20260507190509 57 0 0.0 0.0 0.00 0.00 0.00 77 1031.1
20260507190027 57 0 0.0 0.0 0.00 0.00 0.00 77 1031.1
20260507185509 57 0 0.0 0.0 0.00 0.00 0.00 77 1031.1
20260507185009 57 0 0.0 0.9 0.00 0.00 0.00 77 1031.1
20260507184528 57 0 0.0 0.9 0.00 0.00 0.00 77 1031.0
20260507184010 57 0 0.0 0.9 0.00 0.00 0.00 77 1031.0
20260507183511 57 0 0.0 0.9 0.00 0.00 0.00 77 1031.0
20260507183028 57 0 0.0 1.7 0.00 0.00 0.00 77 1031.2
20260507182510 57 0 0.0 1.7 0.00 0.00 0.00 77 1031.1
20260507182016 57 210 0.0 2.6 0.00 0.00 0.00 76 1031.1
20260507181529 57 0 0.0 2.6 0.00 0.00 0.00 76 1031.0
20260507181009 57 0 0.0 2.6 0.00 0.00 0.00 76 1031.1
20260507180511 57 0 0.0 3.5 0.00 0.00 0.00 76 1031.2
20260507180026 57 0 0.0 3.5 0.00 0.00 0.00 76 1031.2
20260507175509 57 0 0.0 3.5 0.00 0.00 0.00 75 1031.2
20260507175011 57 0 0.0 3.5 0.00 0.00 0.00 75 1031.2
20260507174530 57 213 0.0 2.6 0.00 0.00 0.00 75 1031.3
20260507174010 57 0 0.0 1.7 0.00 0.00 0.00 75 1031.4
20260507173509 57 0 0.0 1.7 0.00 0.00 0.00 75 1031.3
20260507173040 57 0 0.0 0.0 0.00 0.00 0.00 75 1031.2
20260507172511 57 0 0.0 0.0 0.00 0.00 0.00 74 1031.2
20260507172012 57 0 0.0 0.0 0.00 0.00 0.00 74 1031.1
20260507171530 57 0 0.0 0.0 0.00 0.00 0.00 74 1031.0
20260507171012 57 0 0.0 0.0 0.00 0.00 0.00 74 1031.0
20260507170510 57 0 0.0 1.7 0.00 0.00 0.00 74 1031.1
20260507170029 57 0 0.0 1.7 0.00 0.00 0.00 74 1031.0
20260507165511 57 0 0.0 1.7 0.00 0.00 0.00 74 1031.3
20260507165008 58 0 0.0 1.7 0.00 0.00 0.00 74 1031.3
20260507164528 58 0 0.0 1.7 0.00 0.00 0.00 74 1031.3
20260507164011 58 0 0.0 1.7 0.00 0.00 0.00 74 1031.4
20260507163508 58 0 0.0 2.6 0.00 0.00 0.00 74 1031.5
20260507163030 58 214 0.0 3.5 0.00 0.00 0.00 74 1031.5
20260507162510 58 0 0.0 5.2 0.00 0.00 0.00 74 1031.5
20260507162010 58 0 0.9 5.2 0.00 0.00 0.00 74 1031.5
20260507161529 58 211 0.9 6.1 0.00 0.00 0.00 74 1031.6
20260507161009 58 214 1.7 6.1 0.00 0.00 0.00 74 1031.6
20260507160508 57 0 0.9 3.5 0.00 0.00 0.00 73 1031.6
20260507160030 57 0 0.0 2.6 0.00 0.00 0.00 73 1031.5
20260507155508 57 0 0.0 2.6 0.00 0.00 0.00 73 1031.5
20260507155013 57 0 0.0 1.7 0.00 0.00 0.00 73 1031.5
20260507154529 57 0 0.0 1.7 0.00 0.00 0.00 73 1031.6
20260507154012 57 0 0.0 6.1 0.00 0.00 0.00 74 1031.7
20260507153510 57 0 0.0 6.1 0.00 0.00 0.00 74 1031.7
20260507153027 57 268 0.0 5.2 0.00 0.00 0.00 73 1031.7
20260507152513 57 0 0.0 5.2 0.00 0.00 0.00 73 1031.8
20260507152008 56 269 0.9 5.2 0.00 0.00 0.00 74 1031.8
20260507151528 56 273 0.9 3.5 0.00 0.00 0.00 73 1031.8
20260507151008 56 275 0.9 3.5 0.00 0.00 0.00 73 1031.8
20260507150514 56 0 0.0 0.0 0.00 0.00 0.00 73 1031.8
20260507150030 56 0 0.0 0.0 0.00 0.00 0.00 73 1031.8
20260507145509 56 0 0.0 0.0 0.00 0.00 0.00 73 1031.8
20260507145008 56 0 0.0 0.0 0.00 0.00 0.00 73 1031.8
20260507144544 56 0 0.0 0.0 0.00 0.00 0.00 73 1031.7
20260507144009 56 0 0.0 0.0 0.00 0.00 0.00 73 1031.8
20260507143510 56 0 0.0 0.0 0.00 0.00 0.00 73 1031.7
20260507143027 56 0 0.0 0.0 0.00 0.00 0.00 73 1031.7
20260507142508 56 0 0.0 0.0 0.00 0.00 0.00 73 1031.8
20260507142017 56 0 0.0 0.0 0.00 0.00 0.00 73 1031.7
20260507141530 56 0 0.0 0.0 0.00 0.00 0.00 73 1031.7
20260507141008 56 0 0.0 0.0 0.00 0.00 0.00 73 1031.8
20260507140510 56 0 0.0 0.0 0.00 0.00 0.00 73 1031.9
20260507140030 56 0 0.0 0.0 0.00 0.00 0.00 73 1031.9
20260507135508 56 0 0.0 0.0 0.00 0.00 0.00 73 1031.8
20260507135011 56 0 0.0 0.0 0.00 0.00 0.00 73 1031.9
20260507134530 56 0 0.0 0.0 0.00 0.00 0.00 73 1032.0
20260507134010 56 0 0.0 0.0 0.00 0.00 0.00 73 1032.1
20260507133509 56 0 0.0 0.0 0.00 0.00 0.00 72 1032.0
20260507133031 56 0 0.0 0.0 0.00 0.00 0.00 72 1032.0
20260507132511 56 0 0.0 0.0 0.00 0.00 0.00 72 1032.1
20260507132010 56 0 0.0 0.0 0.00 0.00 0.00 72 1032.0
20260507131528 56 0 0.0 0.0 0.00 0.00 0.00 72 1031.9
20260507131014 56 0 0.0 1.7 0.00 0.00 0.00 72 1031.9
20260507130510 56 0 0.0 1.7 0.00 0.00 0.00 72 1031.9
20260507130029 56 277 0.0 1.7 0.00 0.00 0.00 72 1031.8
20260507125512 56 0 0.0 1.7 0.00 0.00 0.00 72 1031.9
20260507125008 56 0 0.0 0.9 0.00 0.00 0.00 72 1031.9
20260507124527 56 0 0.0 0.9 0.00 0.00 0.00 72 1032.1
20260507124013 56 0 0.0 0.0 0.00 0.00 0.00 72 1032.2
20260507123511 57 0 0.0 1.7 0.00 0.00 0.00 71 1032.1
20260507123026 57 0 0.0 1.7 0.00 0.00 0.00 71 1032.3
20260507122511 57 277 0.0 1.7 0.00 0.00 0.00 71 1032.3
20260507122013 57 0 0.0 1.7 0.00 0.00 0.00 71 1032.3
20260507121526 57 0 0.0 1.7 0.00 0.00 0.00 71 1032.5
20260507121010 57 0 0.0 1.7 0.00 0.00 0.00 71 1032.4
20260507120511 57 277 0.0 1.7 0.00 0.00 0.00 71 1032.3
20260507120030 57 0 0.0 1.7 0.00 0.00 0.00 71 1032.3
20260507115508 57 0 0.0 4.3 0.00 0.00 0.00 70 1032.2
20260507115015 57 278 0.9 7.0 0.00 0.00 0.00 70 1032.1
20260507114527 57 209 1.7 7.0 0.00 0.00 0.00 70 1032.1
20260507114011 57 277 1.7 7.0 0.00 0.00 0.00 69 1032.3
20260507113508 57 217 1.7 6.1 0.00 0.00 0.00 68 1032.3
20260507113028 57 218 2.6 6.1 0.00 0.00 0.00 68 1032.1
20260507112513 57 0 0.0 3.5 0.00 0.00 0.00 66 1032.1
20260507112013 57 223 0.0 1.7 0.00 0.00 0.00 66 1032.0
20260507111539 57 0 0.0 0.9 0.00 0.00 0.00 65 1032.0
20260507111011 57 0 0.0 0.9 0.00 0.00 0.00 65 1032.1
20260507110512 57 0 0.0 0.9 0.00 0.00 0.00 65 1032.1
20260507110026 57 0 0.0 1.7 0.00 0.00 0.00 65 1032.2
20260507105511 57 0 0.0 1.7 0.00 0.00 0.00 65 1032.0
20260507105012 57 0 0.0 0.9 0.00 0.00 0.00 65 1032.1
20260507104528 57 0 0.0 0.9 0.00 0.00 0.00 65 1032.1
20260507104012 57 0 0.0 2.6 0.00 0.00 0.00 65 1032.1
20260507103513 57 0 0.0 3.5 0.00 0.00 0.00 65 1032.1
20260507103035 57 223 0.0 4.3 0.00 0.00 0.00 65 1032.3
20260507102510 57 222 0.9 4.3 0.00 0.00 0.00 65 1032.1
20260507102011 57 221 0.0 3.5 0.00 0.00 0.00 65 1032.3
20260507101537 56 222 0.9 3.5 0.00 0.00 0.00 65 1032.3
20260507101009 56 0 0.0 1.7 0.00 0.00 0.00 65 1032.3
20260507100510 56 0 0.0 1.7 0.00 0.00 0.00 65 1032.3
20260507100035 57 0 0.0 0.9 0.00 0.00 0.00 65 1032.1
20260507095508 57 0 0.0 2.6 0.00 0.00 0.00 64 1032.1
20260507095011 57 0 0.0 2.6 0.00 0.00 0.00 64 1032.0
20260507094539 57 0 0.0 0.9 0.00 0.00 0.00 64 1032.0
20260507094007 57 0 0.0 0.9 0.00 0.00 0.00 64 1032.1
20260507093508 57 0 0.0 1.7 0.00 0.00 0.00 64 1032.0
20260507093034 57 0 0.0 2.6 0.00 0.00 0.00 64 1031.8
20260507092512 57 223 0.0 2.6 0.00 0.00 0.00 64 1032.0
20260507092011 57 223 0.0 2.6 0.00 0.00 0.00 64 1031.7
20260507091529 57 0 0.0 3.5 0.00 0.00 0.00 64 1031.7
20260507091014 57 0 0.0 3.5 0.00 0.00 0.00 64 1031.7
20260507090514 57 223 0.0 3.5 0.00 0.00 0.00 64 1031.7
20260507090034 57 0 0.0 3.5 0.00 0.00 0.00 64 1031.7
20260507085508 57 0 0.0 3.5 0.00 0.00 0.00 64 1031.6
20260507085009 57 225 0.0 1.7 0.00 0.00 0.00 63 1031.5
20260507084534 57 0 0.0 2.6 0.00 0.00 0.00 63 1031.6
20260507084009 57 0 0.0 2.6 0.00 0.00 0.00 63 1031.4
20260507083511 57 0 0.0 2.6 0.00 0.00 0.00 62 1031.5
20260507083026 57 0 0.0 1.7 0.00 0.00 0.00 62 1031.3
20260507082508 58 223 0.0 3.5 0.00 0.00 0.00 61 1031.2
20260507082010 58 0 0.0 3.5 0.00 0.00 0.00 61 1031.3
20260507081527 58 222 0.0 3.5 0.00 0.00 0.00 61 1031.3
20260507081010 58 219 0.9 3.5 0.00 0.00 0.00 60 1031.4
20260507080511 58 221 0.9 4.3 0.00 0.00 0.00 59 1031.4
20260507080029 58 218 0.9 4.3 0.00 0.00 0.00 59 1031.4
20260507075509 59 218 0.9 5.2 0.00 0.00 0.00 58 1031.4
20260507075011 59 217 0.9 5.2 0.00 0.00 0.00 58 1031.3
20260507074528 59 0 0.9 5.2 0.00 0.00 0.00 58 1031.5
20260507074010 59 197 1.7 5.2 0.00 0.00 0.00 58 1031.5
20260507073509 60 0 0.9 6.1 0.00 0.00 0.00 58 1031.4
20260507073027 60 198 0.9 7.0 0.00 0.00 0.00 58 1031.4
20260507072507 60 210 1.7 7.0 0.00 0.00 0.00 57 1031.3
20260507072010 60 217 2.6 6.1 0.00 0.00 0.00 56 1031.3
20260507071527 60 225 0.9 6.1 0.00 0.00 0.00 55 1031.4
20260507071013 61 219 1.7 6.1 0.00 0.00 0.00 54 1031.3
20260507070511 61 235 1.7 4.3 0.00 0.00 0.00 54 1031.4
20260507070026 61 213 0.9 7.0 0.00 0.00 0.00 55 1031.2
20260507065510 61 215 0.9 7.0 0.00 0.00 0.00 55 1031.2
20260507065008 61 264 1.7 7.8 0.00 0.00 0.00 55 1031.2
20260507064530 60 259 0.9 7.8 0.00 0.00 0.00 55 1031.2
20260507064010 60 0 0.9 6.1 0.00 0.00 0.00 55 1031.3
20260507063511 60 200 0.9 7.8 0.00 0.00 0.00 55 1031.4
20260507063029 60 193 0.9 8.7 0.00 0.00 0.00 55 1031.3
20260507062507 60 125 1.7 8.7 0.00 0.00 0.00 54 1031.2
20260507062010 60 202 1.7 8.7 0.00 0.00 0.00 55 1031.2
20260507061530 60 242 0.9 7.8 0.00 0.00 0.00 56 1031.2
20260507061007 60 0 0.0 7.8 0.00 0.00 0.00 55 1031.2
20260507060507 60 242 2.6 7.8 0.00 0.00 0.00 55 1031.3
20260507060040 60 225 1.7 6.1 0.00 0.00 0.00 55 1031.3
20260507055512 60 238 1.7 6.1 0.00 0.00 0.00 55 1031.3
20260507055012 61 0 0.9 4.3 0.00 0.00 0.00 55 1031.3
20260507054533 61 0 0.9 6.1 0.00 0.00 0.00 56 1031.3
20260507054013 61 0 0.9 6.1 0.00 0.00 0.00 56 1031.4
20260507053513 61 287 0.0 3.5 0.00 0.00 0.00 56 1031.3
20260507053028 61 293 0.0 7.0 0.00 0.00 0.00 56 1031.3
20260507052509 61 298 0.9 7.0 0.00 0.00 0.00 55 1031.3
20260507052013 61 0 0.9 4.3 0.00 0.00 0.00 54 1031.4
20260507051530 61 217 0.9 6.1 0.00 0.00 0.00 54 1031.4
20260507051009 62 242 1.7 6.1 0.00 0.00 0.00 54 1031.2
20260507050507 62 213 1.7 6.1 0.00 0.00 0.00 54 1031.1
20260507050030 62 252 1.7 7.0 0.00 0.00 0.00 52 1031.2
20260507045507 62 291 1.7 7.0 0.00 0.00 0.00 53 1031.3
20260507045007 62 272 0.9 7.0 0.00 0.00 0.00 52 1031.2
20260507044545 62 275 2.6 7.0 0.00 0.00 0.00 52 1031.2
20260507044008 63 259 2.6 6.1 0.00 0.00 0.00 51 1031.2
20260507043508 63 213 0.9 8.7 0.00 0.00 0.00 52 1031.2
20260507043028 63 202 2.6 8.7 0.00 0.00 0.00 50 1031.2
20260507042510 63 244 1.7 8.7 0.00 0.00 0.00 50 1031.2
20260507042010 63 250 0.9 8.7 0.00 0.00 0.00 52 1031.2
20260507041526 62 226 2.6 6.1 0.00 0.00 0.00 52 1031.2
20260507041008 62 265 1.7 8.7 0.00 0.00 0.00 52 1031.3
20260507040511 61 0 0.9 8.7 0.00 0.00 0.00 53 1031.4
20260507040033 61 254 0.9 4.3 0.00 0.00 0.00 54 1031.3
20260507035511 61 252 0.9 5.2 0.00 0.00 0.00 54 1031.5
20260507035010 61 261 0.0 6.1 0.00 0.00 0.00 53 1031.4
20260507034534 61 265 0.9 6.1 0.00 0.00 0.00 54 1031.5
20260507034009 61 0 0.0 6.1 0.00 0.00 0.00 54 1031.5
20260507033508 61 0 0.0 7.0 0.00 0.00 0.00 54 1031.5
20260507033032 61 167 0.9 7.0 0.00 0.00 0.00 54 1031.5
20260507032514 61 163 0.9 5.2 0.00 0.03 0.00 54 1031.6
20260507032011 61 238 0.9 4.3 0.00 0.03 0.00 54 1031.7
20260507031529 61 238 0.9 7.0 0.00 0.03 0.00 53 1031.8
20260507031012 61 173 1.7 7.0 0.00 0.03 0.00 52 1031.8
20260507030515 62 229 0.9 6.1 0.00 0.03 0.00 52 1031.7
20260507030026 62 161 0.9 6.1 0.00 0.03 0.00 53 1031.8
20260507025510 62 250 0.0 5.2 0.00 0.03 0.00 53 1031.7
20260507025009 62 257 0.9 5.2 0.00 0.03 0.00 53 1031.8
20260507024528 62 212 0.9 6.1 0.00 0.03 0.00 54 1031.9
20260507024011 62 271 0.9 7.0 0.00 0.03 0.00 54 1032.0
20260507023508 62 270 1.7 7.0 0.00 0.03 0.00 54 1032.0
20260507023028 61 244 1.7 6.1 0.00 0.03 0.00 55 1031.9
20260507022513 61 257 0.9 6.1 0.00 0.03 0.00 54 1031.8
20260507022009 61 257 0.9 6.1 0.00 0.03 0.00 54 1032.0
20260507021530 61 221 1.7 5.2 0.00 0.03 0.00 54 1032.1
20260507021014 61 0 0.0 7.8 0.00 0.03 0.00 53 1032.2
20260507020511 61 210 1.7 7.8 0.00 0.03 0.00 52 1032.4
20260507020041 61 234 1.7 7.8 0.00 0.03 0.00 52 1032.3
20260507015508 62 297 0.9 7.0 0.00 0.03 0.00 52 1032.1
20260507015011 62 269 2.6 7.0 0.00 0.03 0.00 51 1032.1
20260507014534 62 232 1.7 5.2 0.00 0.03 0.00 51 1032.1
20260507014011 62 0 0.9 5.2 0.00 0.03 0.00 51 1032.1
20260507013511 62 0 0.9 8.7 0.00 0.03 0.00 51 1032.0
20260507013030 62 281 1.7 8.7 0.00 0.03 0.00 51 1032.1
20260507012508 62 209 1.7 8.7 0.00 0.03 0.00 51 1032.1
20260507012013 62 360 0.9 7.0 0.00 0.03 0.00 52 1032.1
20260507011526 61 0 0.9 8.7 0.00 0.03 0.00 52 1032.0
20260507011010 61 165 2.6 8.7 0.00 0.03 0.00 51 1032.0
20260507010507 61 165 1.7 7.0 0.00 0.03 0.00 52 1031.9
20260507010029 61 216 0.9 6.1 0.00 0.03 0.00 54 1031.9
20260507005508 61 219 1.7 9.6 0.00 0.03 0.00 54 1031.8
20260507005011 61 242 0.9 9.6 0.00 0.03 0.00 55 1031.9
20260507004532 61 213 1.7 7.8 0.00 0.03 0.00 56 1031.9
20260507004010 60 242 0.9 7.8 0.00 0.03 0.00 57 1031.7
20260507003512 60 259 1.7 7.8 0.00 0.03 0.00 58 1031.7
20260507003029 60 229 2.6 5.2 0.00 0.03 0.00 59 1031.7
20260507002507 60 213 0.0 6.1 0.00 0.03 0.00 61 1031.8
20260507002008 59 0 0.9 6.1 0.00 0.03 0.00 62 1031.8
20260507001536 59 217 0.9 7.0 0.00 0.03 0.00 64 1031.9
20260507001009 59 261 0.9 7.0 0.00 0.03 0.00 65 1031.9
20260507000510 58 210 1.7 4.3 0.00 0.03 0.00 67 1031.9
20260507000028 58 250 0.9 7.8 0.00 0.03 0.00 67 1031.8
20260506235507 57 0 0.9 7.8 0.00 0.03 0.00 69 1031.9
20260506235008 57 261 1.7 7.8 0.00 0.03 0.00 69 1031.8
20260506234526 57 222 0.9 5.2 0.00 0.03 0.00 70 1031.8
20260506234012 56 229 0.0 4.3 0.00 0.03 0.00 71 1031.9
20260506233510 56 232 0.0 3.5 0.00 0.03 0.00 71 1031.7
20260506233030 56 0 0.0 3.5 0.00 0.03 0.00 72 1031.7
20260506232508 55 234 0.0 2.6 0.00 0.03 0.00 72 1031.6
20260506232009 55 0 0.0 4.3 0.00 0.03 0.00 73 1031.8
20260506231529 55 236 0.0 4.3 0.00 0.03 0.00 74 1031.6
20260506231007 55 236 0.9 4.3 0.00 0.03 0.00 75 1031.6
20260506230509 54 0 0.0 3.5 0.00 0.03 0.00 75 1031.5
20260506230032 53 223 0.0 1.7 0.00 0.03 0.00 76 1031.3
20260506225512 53 0 0.0 1.7 0.00 0.03 0.00 76 1031.4
20260506225012 52 0 0.0 2.6 0.00 0.03 0.00 76 1031.4
20260506224528 51 0 0.0 2.6 0.00 0.03 0.00 75 1031.3
20260506224011 50 0 0.0 2.6 0.00 0.03 0.00 75 1031.3
20260506223511 49 0 0.0 0.0 0.00 0.03 0.00 74 1031.1
20260506223030 49 0 0.0 0.0 0.00 0.03 0.00 74 1031.2
20260506222513 48 0 0.0 0.0 0.00 0.04 0.00 74 1031.1
20260506222010 48 0 0.0 0.0 0.00 0.04 0.00 73 1031.0
20260506221528 47 0 0.0 0.0 0.00 0.04 0.00 73 1030.9
20260506221011 47 0 0.0 0.0 0.00 0.04 0.00 72 1030.9
20260506220511 47 0 0.0 0.0 0.00 0.04 0.00 72 1030.8
20260506220034 47 0 0.0 0.0 0.00 0.04 0.00 72 1030.8
20260506215508 47 0 0.0 0.9 0.00 0.04 0.00 72 1030.7
20260506215009 47 0 0.0 0.9 0.00 0.04 0.00 72 1030.7
20260506214529 48 0 0.0 0.9 0.00 0.04 0.00 72 1030.8
20260506214015 48 0 0.0 0.0 0.00 0.04 0.00 72 1030.7
20260506213508 48 0 0.0 0.0 0.00 0.04 0.00 71 1030.6
20260506213030 48 0 0.0 0.0 0.00 0.04 0.00 71 1030.5
20260506212512 48 0 0.0 0.0 0.00 0.04 0.00 71 1030.3
20260506212016 48 0 0.0 0.0 0.00 0.04 0.00 71 1030.3
20260506211533 49 0 0.0 0.0 0.00 0.04 0.00 71 1030.2
20260506211013 49 0 0.0 0.0 0.00 0.04 0.00 71 1030.2
20260506210510 49 0 0.0 0.0 0.00 0.04 0.00 71 1030.2
20260506210028 49 0 0.0 0.0 0.00 0.04 0.00 71 1030.0
20260506205512 49 0 0.0 0.0 0.00 0.04 0.00 71 1029.9
20260506205014 50 0 0.0 0.0 0.00 0.04 0.00 71 1029.8
20260506204528 50 0 0.0 0.0 0.00 0.04 0.00 71 1029.7
20260506204012 50 0 0.0 0.0 0.00 0.04 0.00 71 1029.6
20260506203513 50 0 0.0 0.0 0.00 0.04 0.00 71 1029.6
20260506203033 51 0 0.0 0.0 0.00 0.04 0.00 71 1029.6
20260506202510 51 0 0.0 0.0 0.00 0.04 0.00 71 1029.6
20260506202016 51 0 0.0 0.0 0.00 0.04 0.00 71 1029.6
20260506201528 51 0 0.0 0.0 0.00 0.04 0.00 71 1029.5
20260506201010 51 0 0.0 0.9 0.00 0.04 0.00 71 1029.6
20260506200515 51 0 0.0 1.7 0.00 0.04 0.00 71 1029.4
20260506200032 51 0 0.0 1.7 0.00 0.04 0.00 71 1029.5
20260506195511 51 0 0.0 1.7 0.00 0.04 0.00 71 1029.5
20260506195011 51 0 0.0 1.7 0.00 0.04 0.00 70 1029.4
20260506194530 51 0 0.0 1.7 0.00 0.04 0.00 70 1029.2
20260506194010 51 0 0.0 0.0 0.00 0.04 0.00 70 1029.2